Weather History for Erie, PA

Change the Weather History Date:

Saturday, January 19, 2013

  Actual Average Record
Temperature  
Mean Temperature 44 °F 27 °F  
Max Temperature 51 °F 33 °F 65 °F (1907)
Min Temperature 36 °F 20 °F -18 °F (1994)
Degree Days  
Heating Degree Days 21 38  
Month to date heating degree days 561 714  
Since 1 July heating degree days 2583 2882  
Cooling Degree Days 0 0  
Month to date cooling degree days 0 0  
Year to date cooling degree days 0 0  
Moisture  
Dew Point 21 °F    
Average Humidity 40    
Maximum Humidity 45    
Minimum Humidity 34    
Precipitation  
Precipitation 0.00 in 0.10 in 0.54 in (1952)
Month to date precipitation 0.56 1.93  
Year to date precipitation 0.56 1.93  
Snow  
Snow 0.00 in 0.90 in - ()
Month to date snowfall 1.3 19.2  
Since 1 July snowfall 24.8 55.4  
Snow Depth 0.00 in    
Sea Level Pressure  
Sea Level Pressure 29.92 in    
Wind  
Wind Speed 20 mph (SSW)    
Max Wind Speed 33 mph    
Max Gust Speed 56 mph    
Visibility 10 miles    
Events      
T = Trace of Precipitation, MM = Missing Value Source: NWS Daily Summary

Daily Weather History Graph

Daily Weather History Graph

Search for Another Location

Airport:

Trip Planner

Search our weather history database for the weather conditions in past years. The results will help you decide how hot, cold, wet, or windy it might be!

Date:

Astronomy

Jan. 19, 2013 Rise Set
Actual Time 7:44 AM EST 5:19 PM EST
Civil Twilight 7:13 AM EST 5:49 PM EST
Nautical Twilight 6:39 AM EST 6:24 PM EST
Astronomical Twilight 6:06 AM EST 6:57 PM EST
Moon 11:45 AM EST (1/19) 1:15 AM EST (1/19)
Length of Visible Light 10h 36m
Length of Day
9h 35m
First Quarter, 57% of the Moon is Illuminated
Jan 19
First Quarter
Jan 26
Full
Feb 3
Last Quarter
Feb 10
New
Feb 17
First Quarter

Hourly Weather History & Observations

Time (EST) Temp. Windchill Dew Point Humidity Pressure Visibility Wind Dir Wind Speed Gust Speed Precip Events Conditions
12:51 AM 37.9 °F 26.6 °F 15.1 °F 39% 30.06 in 10.0 mi South 25.3 mph 40.3 mph N/A   Overcast
1:51 AM 37.4 °F 25.6 °F 17.6 °F 45% 30.03 in 10.0 mi South 26.5 mph 39.1 mph N/A   Clear
2:51 AM 37.9 °F 26.1 °F 17.1 °F 43% 30.04 in 10.0 mi SSW 27.6 mph 36.8 mph N/A   Clear
3:51 AM 37.9 °F 27.3 °F 18.0 °F 45% 30.04 in 10.0 mi SW 21.9 mph 39.1 mph N/A   Clear
4:51 AM 37.9 °F 26.3 °F 18.0 °F 45% 30.02 in 10.0 mi SSW 26.5 mph 33.4 mph N/A   Clear
5:51 AM 39.0 °F 28.0 °F 19.0 °F 45% 30.01 in 10.0 mi South 25.3 mph 35.7 mph N/A   Clear
6:51 AM 39.0 °F 29.3 °F 19.0 °F 45% 30.01 in 10.0 mi SSW 19.6 mph 38.0 mph N/A   Clear
7:51 AM 39.0 °F 29.3 °F 19.0 °F 45% 30.02 in 10.0 mi SSW 19.6 mph 32.2 mph N/A   Clear
8:51 AM 41.0 °F 30.9 °F 19.9 °F 43% 30.02 in 10.0 mi SSW 24.2 mph 36.8 mph N/A   Clear
9:51 AM 43.0 °F 34.8 °F 21.9 °F 43% 30.03 in 10.0 mi SW 18.4 mph 27.6 mph N/A   Clear
10:51 AM 44.1 °F 36.2 °F 23.0 °F 43% 30.03 in 10.0 mi SW 18.4 mph 26.5 mph N/A   Clear
11:51 AM 44.1 °F 37.4 °F 24.1 °F 45% 29.99 in 10.0 mi SSW 13.8 mph 21.9 mph N/A   Clear
12:51 PM 46.0 °F 40.2 °F 25.0 °F 44% 29.96 in 10.0 mi SSW 12.7 mph 21.9 mph N/A   Clear
1:51 PM 48.0 °F - 25.0 °F 41% 29.92 in 10.0 mi SSW 17.3 mph 24.2 mph N/A   Clear
2:51 PM 50.0 °F - 26.1 °F 39% 29.88 in 10.0 mi SSW 17.3 mph 25.3 mph N/A   Clear
3:51 PM 50.0 °F - 26.1 °F 39% 29.84 in 10.0 mi SSW 16.1 mph 27.6 mph N/A   Clear
4:51 PM 50.0 °F - 25.0 °F 38% 29.78 in 10.0 mi SSW 18.4 mph 33.4 mph N/A   Clear
5:51 PM 48.9 °F - 23.0 °F 36% 29.78 in 10.0 mi SSW 17.3 mph 25.3 mph N/A   Clear
6:51 PM 48.9 °F - 21.0 °F 33% 29.78 in 10.0 mi SSW 16.1 mph 21.9 mph N/A   Partly Cloudy
7:51 PM 48.9 °F - 21.0 °F 33% 29.78 in 10.0 mi SSW 20.7 mph 26.5 mph N/A   Overcast
8:51 PM 48.2 °F - 21.2 °F 34% 29.74 in 10.0 mi SSW 19.6 mph 26.5 mph N/A   Mostly Cloudy
9:51 PM 46.9 °F - 21.9 °F 37% 29.72 in 10.0 mi SSW 17.3 mph 29.9 mph N/A   Clear
10:51 PM 48.0 °F - 23.0 °F 37% 29.69 in 10.0 mi SSW 18.4 mph 33.4 mph N/A   Overcast
11:51 PM 48.0 °F - 25.0 °F 41% 29.65 in 10.0 mi SSW 19.6 mph 29.9 mph N/A   Overcast